TimeCDT,TemperatureF,Dew PointF,Humidity,Sea Level PressureIn,VisibilityMPH,Wind Direction,Wind SpeedMPH,Gust SpeedMPH,PrecipitationIn,Events,Conditions,WindDirDegrees,DateUTC
12:13 AM,44.6,39.2,81,30.03,10.0,ENE,12.7,20.7,N/A,,Mostly Cloudy,70,2012-10-23 05:13:00
12:33 AM,44.6,39.2,81,30.02,10.0,East,12.7,24.2,N/A,,Mostly Cloudy,80,2012-10-23 05:33:00
1:13 AM,44.6,39.2,81,30.01,10.0,ENE,16.1,25.3,N/A,,Scattered Clouds,70,2012-10-23 06:13:00
1:53 AM,44.6,39.2,81,30.00,10.0,ENE,13.8,23.0,N/A,,Overcast,70,2012-10-23 06:53:00
2:53 AM,42.8,39.2,87,29.99,10.0,ENE,15.0,25.3,N/A,,Overcast,70,2012-10-23 07:53:00
3:13 AM,42.8,39.2,87,29.99,10.0,ENE,16.1,23.0,N/A,,Overcast,70,2012-10-23 08:13:00
3:33 AM,42.8,39.2,87,29.99,10.0,ENE,13.8,25.3,N/A,Thunderstorm,Overcast,70,2012-10-23 08:33:00
3:53 AM,42.8,39.2,87,29.98,10.0,ENE,16.1,21.9,N/A,,Overcast,70,2012-10-23 08:53:00
4:13 AM,42.8,39.2,87,29.97,10.0,ENE,15.0,23.0,N/A,,Overcast,70,2012-10-23 09:13:00
4:33 AM,42.8,39.2,87,29.97,7.0,ENE,18.4,26.5,N/A,,Overcast,70,2012-10-23 09:33:00
4:53 AM,42.8,39.2,87,29.96,5.0,ENE,20.7,31.1,N/A,Thunderstorm,Overcast,60,2012-10-23 09:53:00
5:13 AM,42.8,39.2,87,29.95,7.0,ENE,17.3,27.6,N/A,,Overcast,70,2012-10-23 10:13:00
5:53 AM,42.8,39.2,87,29.95,-9999.0,ENE,17.3,-,N/A,,Light Drizzle,70,2012-10-23 10:53:00
6:33 AM,42.8,39.2,87,29.94,2.5,ENE,18.4,28.8,0.01,Rain,Heavy Rain,70,2012-10-23 11:33:00
6:53 AM,42.8,39.2,87,29.93,4.0,ENE,17.3,31.1,0.01,Rain-Thunderstorm,Rain,70,2012-10-23 11:53:00
7:13 AM,42.8,39.2,87,29.93,7.0,East,16.1,26.5,0.02,Rain,Light Rain,80,2012-10-23 12:13:00
8:53 AM,42.8,39.2,87,29.92,5.0,ENE,10.4,25.3,N/A,Rain,Light Rain,70,2012-10-23 13:53:00
9:33 AM,42.8,39.2,87,29.92,4.0,East,16.1,20.7,0.03,Rain,Rain,80,2012-10-23 14:33:00
9:53 AM,42.8,39.2,87,29.91,3.0,ENE,13.8,32.2,N/A,Rain,Light Rain,70,2012-10-23 14:53:00
10:13 AM,42.8,39.2,87,29.90,2.5,ENE,18.4,29.9,0.01,Thunderstorm,Overcast,60,2012-10-23 15:13:00
10:33 AM,42.8,39.2,87,29.90,3.0,ENE,15.0,27.6,0.02,Rain,Light Rain,70,2012-10-23 15:33:00
10:53 AM,42.8,39.2,87,29.90,3.0,ENE,17.3,25.3,0.01,Rain,Rain,70,2012-10-23 15:53:00
11:13 AM,42.8,39.2,87,29.90,4.0,ENE,19.6,26.5,0.04,Rain,Rain,70,2012-10-23 16:13:00
11:33 AM,42.8,39.2,87,29.89,5.0,ENE,13.8,32.2,0.05,Rain,Rain,60,2012-10-23 16:33:00
11:53 AM,42.8,39.2,87,29.89,5.0,ENE,15.0,24.2,N/A,Rain,Light Rain,70,2012-10-23 16:53:00
12:13 PM,42.8,39.2,87,29.88,2.0,ENE,13.8,21.9,0.02,Rain-Thunderstorm,Light Thunderstorms and Rain,70,2012-10-23 17:13:00
12:33 PM,42.8,39.2,87,29.87,1.5,ENE,11.5,28.8,0.02,Thunderstorm,Overcast,60,2012-10-23 17:33:00
1:33 PM,42.8,41.0,93,29.84,1.0,ENE,16.1,25.3,0.01,,Overcast,70,2012-10-23 18:33:00
1:53 PM,42.8,41.0,93,29.85,1.2,ENE,13.8,25.3,N/A,,Overcast,70,2012-10-23 18:53:00
2:13 PM,42.8,41.0,93,29.84,1.0,ENE,11.5,24.2,0.01,,Overcast,70,2012-10-23 19:13:00
2:33 PM,42.8,41.0,93,29.84,1.2,ENE,12.7,21.9,0.02,Rain,Light Rain,70,2012-10-23 19:33:00
2:54 PM,44.6,41.0,87,29.84,1.8,ENE,10.4,24.2,0.01,Rain,Light Rain,60,2012-10-23 19:54:00
3:13 PM,44.6,41.0,87,29.83,2.0,ENE,15.0,20.7,0.01,Rain,Light Rain,70,2012-10-23 20:13:00
3:33 PM,44.6,41.0,87,29.81,4.0,ENE,16.1,23.0,0.02,Rain,Light Rain,70,2012-10-23 20:33:00
3:53 PM,44.6,41.0,87,29.81,1.5,ENE,13.8,24.2,N/A,,Light Drizzle,60,2012-10-23 20:53:00
4:13 PM,44.6,41.0,87,29.80,1.2,ENE,13.8,21.9,N/A,,Overcast,60,2012-10-23 21:13:00
4:33 PM,44.6,41.0,87,29.80,1.2,ENE,17.3,23.0,N/A,,Light Drizzle,60,2012-10-23 21:33:00
4:53 PM,44.6,41.0,87,29.79,1.2,ENE,12.7,20.7,N/A,,Overcast,60,2012-10-23 21:53:00
5:13 PM,44.6,41.0,87,29.79,1.2,ENE,11.5,19.6,N/A,,Drizzle,60,2012-10-23 22:13:00
5:33 PM,44.6,41.0,87,29.80,3.0,ENE,11.5,18.4,0.01,Rain,Rain,70,2012-10-23 22:33:00
6:13 PM,44.6,42.8,93,29.79,3.0,NE,11.5,18.4,0.01,Rain,Light Rain,50,2012-10-23 23:13:00
6:33 PM,44.6,42.8,93,29.79,3.0,ENE,12.7,19.6,0.01,Rain,Rain,60,2012-10-23 23:33:00
6:53 PM,44.6,42.8,93,29.79,3.0,ENE,10.4,18.4,N/A,Rain,Rain,60,2012-10-23 23:53:00
7:14 PM,44.6,42.8,93,29.79,3.0,ENE,11.5,17.3,0.01,,Drizzle,70,2012-10-24 00:14:00
7:33 PM,44.6,42.8,93,29.80,3.0,ENE,11.5,18.4,0.01,,Light Drizzle,60,2012-10-24 00:33:00
7:53 PM,44.6,42.8,93,29.79,3.0,ENE,8.1,-,0.01,Rain,Rain,60,2012-10-24 00:53:00
8:13 PM,44.6,42.8,93,29.78,3.0,ENE,10.4,17.3,0.01,,Light Drizzle,60,2012-10-24 01:13:00
8:34 PM,44.6,42.8,93,29.78,3.0,ENE,6.9,17.3,0.01,,Overcast,60,2012-10-24 01:34:00
8:53 PM,44.6,42.8,93,29.77,3.0,ENE,6.9,-,N/A,,Overcast,60,2012-10-24 01:53:00
9:13 PM,44.6,42.8,93,29.77,2.0,ENE,9.2,-,N/A,,Overcast,60,2012-10-24 02:13:00
9:33 PM,46.4,42.8,87,29.77,1.8,ENE,8.1,-,0.01,,Drizzle,60,2012-10-24 02:33:00
9:53 PM,46.4,42.8,87,29.77,2.5,ENE,6.9,-,N/A,,Overcast,60,2012-10-24 02:53:00
10:13 PM,46.4,42.8,87,29.77,3.0,ENE,5.8,-,N/A,,Overcast,60,2012-10-24 03:13:00
10:33 PM,46.4,42.8,87,29.78,2.5,NE,4.6,-,N/A,,Overcast,50,2012-10-24 03:33:00
10:53 PM,46.4,42.8,87,29.77,2.0,NE,4.6,-,N/A,,Light Drizzle,50,2012-10-24 03:53:00
11:13 PM,46.4,44.6,93,29.77,2.0,Calm,Calm,-,N/A,,Light Drizzle,0,2012-10-24 04:13:00
11:33 PM,46.4,44.6,93,29.77,2.5,Calm,Calm,-,N/A,,Overcast,0,2012-10-24 04:33:00
11:53 PM,46.4,44.6,93,29.76,2.5,ENE,3.5,-,N/A,,Overcast,70,2012-10-24 04:53:00